Aeroporto :
LOGIN :

Iscrizione | Disclaimer

   EN    FR    IT 

 










Sommario :    VFR   VFR Marginale   IFR   IFR Intensivo   IFR Molto Intensivo
Visibilità : 
Base nubi : 
>= 8 km
>= 3000ft
5 / 8 km
1000 / 3000 ft
1500m / 5 km
500 / 1000 ft
800 / 1500m
200 / 500 ft
< 800m
< 200 ft
Simboli :   Temporali  Nebbia  Neve Forte  Precipitazioni Forti  Vento > 20 kt
SIGMETs :   Varie  Temporali  Ghiacco  Turbolenza  Onda orograficha  Ceneri Vulcaniche






- Altitudine del aeroporto : 373 ft
- Codice IATA : OZH


UKDE - Mokraya

ULTIMO METAR :
  • 180600Z 32006MPS 270V360 CAVOK 14/07 Q1014 R02R/090070 NOSIG

METARs OBSOLETI :
  • 180530Z 31008MPS 280V350 CAVOK 15/07 Q1014 R02R/090070 NOSIG
  • 180500Z 31006MPS 270V350 CAVOK 15/07 Q1014 R02R/090070 NOSIG
  • 180430Z 33005MPS 280V360 CAVOK 13/07 Q1013 R02R/090070 NOSIG
  • 180400Z 32005MPS 290V350 CAVOK 13/07 Q1013 R02R/090070 NOSIG
  • 180330Z 33005MPS 300V360 CAVOK 13/06 Q1013 R02R/090070 NOSIG

TAF TAF UKDE
Valido dal 18 a 06 ore il 18 a 15 ore UTC


180502Z 1806/1815 30005MPS 9999 SCT030
TEMPO 1806/1815 33010G15MPS
FIR UKDV / Europa



MetMap, La meteo Aeronautica in un colpo d'occhio ! - Copyright ORBIFLY Dicembre 2007 - Disclaimer

ORBIFLY MET'MAP TEAM :

Programmazione e sviluppo : Alexandra Zaïnal
Concezione : Baudouin d'Aumeries
Aiuto per la programmazione : Marc-Olivier Méhu
Supporto tecnico e logistico : Manuel Goepfert
Aiuto per la traduzione : Arnaldo La Scala

Contatto : metmap@orbifly.com




FONTI E CREDITI :

   NOAA